Location: Lecco
(45.8566°N, 9.3977°E)
Time: 02:48:06
(UTC+02:00)

Courier 1B Rocket - Pass Details

Date: 30 August 2019
Orbit: 920 x 1202 km, 28.2° (Epoch: 20 September)

Event Time Altitude Azimuth Distance (km) Brightness Sun altitude
Rises 05:43:36 0° 247° (WSW) 3,860 - -10.1°
Exits shadow 05:47:34 - 226° (SW) 3,043 7.0 -9.5°
Reaches altitude 10° 05:48:07 10° 222° (SW) 2,969 7.0 -9.4°
Maximum altitude 05:51:10 13° 197° (SSW) 2,788 7.0 -8.9°
Drops below altitude 10° 05:54:16 10° 172° (S) 3,044 7.4 -8.4°
Sets 05:59:03 0° 147° (SSE) 4,050 8.4 -7.7°
